Bangkok (Suvarnabhumi), Thailand

12:04 AM +07 on December 13, 2019 (GMT +0700)
Bangkok (Suvarnabhumi)

Weather History for VTBS - October, 2019

Change the Weather History Date:

Tuesday, October 29, 2019

  Actual Average (WUND) Record (WUND)
Temperature  
Mean Temperature 84 °F -  
Max Temperature 93 °F 89 °F - (-1)
Min Temperature 74 °F 72 °F - (-1)
Cooling Degree Days 18    
Growing Degree Days 34 (Base 50)    
Moisture  
Dew Point 76 °F    
Average Humidity 75    
Maximum Humidity 95    
Minimum Humidity 55    
Precipitation  
Precipitation 0.55 in 0.09 in - ()
Sea Level Pressure  
Sea Level Pressure 29.83 in    
Wind  
Wind Speed 3 mph ()    
Max Wind Speed 9 mph    
Max Gust Speed -    
Visibility 5.3 miles    
Events Rain , Thunderstorm    
Averages and records for this station are not official NWS values.
T = Trace of Precipitation, MM = Missing Value Source: Averaged Metar Reports

Daily Weather History Graph

Daily Weather History Graph

Search for Another Location

Airport or City:

Astronomy

Oct. 29, 2019 Rise Set
Actual Time 6:09 AM +07 5:50 PM +07
Civil Twilight 5:47 AM +07 6:12 PM +07
Nautical Twilight 5:22 AM +07 6:37 PM +07
Astronomical Twilight 4:57 AM +07 7:02 PM +07
Moon 7:02 AM +07 (10/29) 7:00 PM +07 (10/29)
Length of Visible Light 12h 24m
Length of Day
11h 41m
New Moon, 2% of the Moon is Illuminated
Oct 29
New Moon
Nov 4
First Quarter
Nov 12
Full
Nov 20
Last Quarter
Nov 26
New

Hourly Weather History & Observations

Time (+07) Temp. Heat Index Dew Point Humidity Pressure Visibility Wind Dir Wind Speed Gust Speed Precip Events Conditions
12:00 AM 80.6 °F 86.2 °F 75.2 °F 84% 29.83 in 6.2 mi WSW 4.6 mph - N/A   Scattered Clouds
12:30 AM 80.6 °F 87.1 °F 77.0 °F 89% 29.83 in 6.2 mi Variable 2.3 mph - N/A   Scattered Clouds
1:00 AM 84 °F - 80 °F 86% 29.83 in 2 mi Calm Calm - -   Mist
1:00 AM 80.6 °F 87.1 °F 77.0 °F 89% 29.83 in 6.2 mi WNW 3.5 mph - N/A   Scattered Clouds
1:30 AM 80.6 °F 87.1 °F 77.0 °F 89% 29.83 in 6.2 mi NW 3.5 mph - N/A   Scattered Clouds
2:00 AM 80.6 °F 87.1 °F 77.0 °F 89% 29.83 in 5.6 mi Variable 2.3 mph - N/A   Mostly Cloudy
2:30 AM 80.6 °F 87.1 °F 77.0 °F 89% 29.83 in 5.6 mi NNE 3.5 mph - N/A   Scattered Clouds
3:00 AM 80.6 °F 87.1 °F 77.0 °F 89% 29.80 in 5.0 mi North 3.5 mph - N/A   Scattered Clouds
3:30 AM 80.6 °F 87.1 °F 77.0 °F 89% 29.80 in 5.0 mi North 2.3 mph - N/A   Scattered Clouds
4:00 AM 77 °F - 76 °F 95% 29.80 in 1 mi Calm Calm - - Rain , Thunderstorm Thunderstorms and Rain
4:00 AM 82.4 °F 90.9 °F 77.0 °F 84% 29.83 in 5.0 mi East 4.6 mph - N/A   Scattered Clouds
4:30 AM 82.4 °F 90.9 °F 77.0 °F 84% 29.83 in 5.0 mi East 3.5 mph - N/A   Scattered Clouds
5:00 AM 82.4 °F 89.5 °F 75.2 °F 79% 29.83 in 5.0 mi SSE 8.1 mph - N/A   Scattered Clouds
5:30 AM 80.6 °F 85.4 °F 73.4 °F 79% 29.83 in 5.0 mi SE 5.8 mph - N/A   Scattered Clouds
6:00 AM 80.6 °F 85.4 °F 73.4 °F 79% 29.86 in 5.0 mi East 2.3 mph - N/A   Scattered Clouds
6:30 AM 80.6 °F 85.4 °F 73.4 °F 79% 29.86 in 5.6 mi ENE 2.3 mph - N/A   Scattered Clouds
7:00 AM 78 °F - 77 °F 94% 29.83 in 1 mi Calm Calm - -   Mist
7:00 AM 80.6 °F 85.4 °F 73.4 °F 79% 29.86 in 5.6 mi NNE 3.5 mph - N/A   Mostly Cloudy
7:30 AM 80.6 °F 86.2 °F 75.2 °F 84% 29.86 in 6.2 mi North 5.8 mph - N/A   Scattered Clouds
8:00 AM 82.4 °F 89.5 °F 75.2 °F 79% 29.86 in 6.2 mi NNE 3.5 mph - N/A   Scattered Clouds
8:30 AM 82.4 °F 89.5 °F 75.2 °F 79% 29.86 in 6.2 mi Variable 2.3 mph - N/A   Scattered Clouds
9:00 AM 84.2 °F 92.3 °F 75.2 °F 74% 29.89 in 6.2 mi North 5.8 mph - N/A   Scattered Clouds
9:30 AM 84.2 °F 92.3 °F 75.2 °F 74% 29.89 in 6.2 mi North 5.8 mph - N/A   Scattered Clouds
10:00 AM 82 °F - 79 °F 87% 29.88 in 2 mi East 6.9 mph - -   Mist
10:30 AM 87.8 °F 97.6 °F 75.2 °F 66% 29.89 in 6.2 mi ENE 9.2 mph - N/A   Partly Cloudy
12:00 PM 89.6 °F 98.2 °F 73.4 °F 59% 29.86 in 6.2 mi ENE 8.1 mph - N/A   Partly Cloudy
12:30 PM 89.6 °F 99.8 °F 75.2 °F 62% 29.83 in 6.2 mi ENE 8.1 mph - N/A   Partly Cloudy
1:00 PM 86 °F - 80 °F 79% 29.81 in 5 mi ENE 6.9 mph - -   Mist
1:00 PM 89.6 °F 99.8 °F 75.2 °F 62% 29.83 in 6.2 mi East 5.8 mph - N/A   Partly Cloudy
1:30 PM 89.6 °F 99.8 °F 75.2 °F 62% 29.80 in 6.2 mi ESE 3.5 mph - N/A   Partly Cloudy
2:30 PM 91.4 °F 102.5 °F 75.2 °F 59% 29.77 in 6.2 mi ESE 4.6 mph - N/A   Partly Cloudy
3:00 PM 93.2 °F 105.0 °F 75.2 °F 56% 29.77 in 6.2 mi Variable 2.3 mph - N/A   Scattered Clouds
4:00 PM 92 °F - 80 °F 62% 29.75 in 5 mi Calm Calm - -   Mist
4:00 PM 91.4 °F 102.5 °F 75.2 °F 59% 29.74 in 6.2 mi NE 3.5 mph - N/A   Partly Cloudy
5:00 PM 91.4 °F 100.1 °F 73.4 °F 55% 29.77 in 6.2 mi East 5.8 mph - N/A   Partly Cloudy
6:00 PM 89.6 °F 98.2 °F 73.4 °F 59% 29.77 in 6.2 mi East 4.6 mph - N/A   Partly Cloudy
6:30 PM 91.4 °F 100.1 °F 73.4 °F 55% 29.80 in 6.2 mi East 4.6 mph - N/A   Partly Cloudy
7:00 PM 88 °F - 79 °F 68% 29.80 in 1 mi Calm Calm - -   Mist
7:00 PM 87.8 °F 97.6 °F 75.2 °F 66% 29.80 in 6.2 mi East 4.6 mph - N/A   Scattered Clouds
7:30 PM 89.6 °F 99.8 °F 75.2 °F 62% 29.83 in 6.2 mi East 6.9 mph - N/A   Mostly Cloudy
8:30 PM 84.2 °F 90.9 °F 73.4 °F 70% 29.86 in 6.2 mi North 3.5 mph - N/A   Mostly Cloudy
9:00 PM 82.4 °F 88.2 °F 73.4 °F 74% 29.86 in 6.2 mi NW 4.6 mph - N/A   Mostly Cloudy
9:30 PM 84.2 °F 90.9 °F 73.4 °F 70% 29.86 in 6.2 mi NNW 2.3 mph - N/A   Mostly Cloudy
10:00 PM 85 °F - 80 °F 81% 29.86 in 1 mi Calm Calm - -   Mist
10:00 PM 86.0 °F 95.1 °F 75.2 °F 70% 29.86 in 6.2 mi East 4.6 mph - N/A   Scattered Clouds
10:30 PM 86.0 °F 96.9 °F 77.0 °F 74% 29.86 in 6.2 mi East 3.5 mph - N/A   Scattered Clouds
11:00 PM 86.0 °F 95.1 °F 75.2 °F 70% 29.86 in 6.2 mi East 6.9 mph - N/A   Scattered Clouds
11:30 PM 86.0 °F 95.1 °F 75.2 °F 70% 29.86 in 6.2 mi East 6.9 mph - N/A   Partly Cloudy